owner,sensor,date,latitude,longitude,vertical_datum,wind_speed,wind_to_direction,wind_speed_of_gust,qcFlag 
WAVCIS,ioos:station:WAVCIS:CSI09:1,2009-02-01T00:00:00Z,29.1015,-89.9782,0.0,7.02,248.0,,'11111222,11111222,99999999' 
WAVCIS,ioos:station:WAVCIS:CSI09:1,2009-02-01T01:00:00Z,29.1015,-89.9782,0.0,5.992,245.0,,'11111222,11111222,99999999' 
WAVCIS,ioos:station:WAVCIS:CSI09:1,2009-02-01T02:00:00Z,29.1015,-89.9782,0.0,5.644,242.0,,'11111222,11111222,99999999' 
WAVCIS,ioos:station:WAVCIS:CSI09:1,2009-02-01T03:00:00Z,29.1015,-89.9782,0.0,5.25,241.0,,'11111222,11111222,99999999' 
WAVCIS,ioos:station:WAVCIS:CSI09:1,2009-02-01T04:00:00Z,29.1015,-89.9782,0.0,4.588,233.0,,'11111222,11111222,99999999' 
WAVCIS,ioos:station:WAVCIS:CSI09:1,2009-02-01T05:00:00Z,29.1015,-89.9782,0.0,2.58,214.0,,'11111222,11111222,99999999' 
WAVCIS,ioos:station:WAVCIS:CSI09:1,2009-02-01T06:00:00Z,29.1015,-89.9782,0.0,2.299,205.0,,'11111222,11111222,99999999' 
WAVCIS,ioos:station:WAVCIS:CSI09:1,2009-02-01T07:00:00Z,29.1015,-89.9782,0.0,2.45,169.0,,'11111222,11111222,99999999' 
WAVCIS,ioos:station:WAVCIS:CSI09:1,2009-02-01T08:00:00Z,29.1015,-89.9782,0.0,2.353,154.0,,'11111222,11111222,99999999' 
WAVCIS,ioos:station:WAVCIS:CSI09:1,2009-02-01T09:00:00Z,29.1015,-89.9782,0.0,1.627,149.0,,'11111222,11111222,99999999' 
WAVCIS,ioos:station:WAVCIS:CSI09:1,2009-02-01T10:00:00Z,29.1015,-89.9782,0.0,1.907,108.0,,'11111222,11111222,99999999' 
WAVCIS,ioos:station:WAVCIS:CSI09:1,2009-02-01T11:00:00Z,29.1015,-89.9782,0.0,3.001,97.0,,'11111222,11111222,99999999' 
WAVCIS,ioos:station:WAVCIS:CSI09:1,2009-02-01T12:00:00Z,29.1015,-89.9782,0.0,3.918,91.0,,'11111222,11111222,99999999' 
WAVCIS,ioos:station:WAVCIS:CSI09:1,2009-02-01T13:00:00Z,29.1015,-89.9782,0.0,4.897,99.0,,'11111222,11111222,99999999' 
WAVCIS,ioos:station:WAVCIS:CSI09:1,2009-02-01T14:00:00Z,29.1015,-89.9782,0.0,4.23,95.0,,'11111222,11111222,99999999' 
WAVCIS,ioos:station:WAVCIS:CSI09:1,2009-02-01T15:00:00Z,29.1015,-89.9782,0.0,4.672,95.0,,'11111222,11111222,99999999' 
WAVCIS,ioos:station:WAVCIS:CSI09:1,2009-02-01T16:00:00Z,29.1015,-89.9782,0.0,4.79,93.0,,'11111222,11111222,99999999' 
WAVCIS,ioos:station:WAVCIS:CSI09:1,2009-02-01T17:00:00Z,29.1015,-89.9782,0.0,7.0,111.0,,'11111222,11111222,99999999' 
WAVCIS,ioos:station:WAVCIS:CSI09:1,2009-02-01T18:00:00Z,29.1015,-89.9782,0.0,6.238,123.0,,'11111222,11111222,99999999' 
WAVCIS,ioos:station:WAVCIS:CSI09:1,2009-02-01T19:00:00Z,29.1015,-89.9782,0.0,6.743,117.0,,'11111222,11111222,99999999' 
WAVCIS,ioos:station:WAVCIS:CSI09:1,2009-02-01T20:00:00Z,29.1015,-89.9782,0.0,4.933,101.0,,'11111222,11111222,99999999' 
WAVCIS,ioos:station:WAVCIS:CSI09:1,2009-02-01T21:00:00Z,29.1015,-89.9782,0.0,6.406,111.0,,'11111222,11111222,99999999' 
WAVCIS,ioos:station:WAVCIS:CSI09:1,2009-02-01T22:00:00Z,29.1015,-89.9782,0.0,7.2,167.0,,'11111222,11111222,99999999' 
WAVCIS,ioos:station:WAVCIS:CSI09:1,2009-02-01T23:00:00Z,29.1015,-89.9782,0.0,5.432,134.0,,'11111222,11111222,99999999' 
WAVCIS,ioos:station:WAVCIS:CSI09:1,2009-02-02T00:00:00Z,29.1015,-89.9782,0.0,4.795,119.0,,'11111222,11111222,99999999' 
WAVCIS,ioos:station:WAVCIS:CSI09:1,2009-02-02T01:00:00Z,29.1015,-89.9782,0.0,5.364,127.0,,'11111222,11111222,99999999' 
WAVCIS,ioos:station:WAVCIS:CSI09:1,2009-02-02T02:00:00Z,29.1015,-89.9782,0.0,5.601,136.0,,'11111222,11111222,99999999' 
WAVCIS,ioos:station:WAVCIS:CSI09:1,2009-02-02T03:00:00Z,29.1015,-89.9782,0.0,6.991,124.0,,'11111222,11111222,99999999' 
WAVCIS,ioos:station:WAVCIS:CSI09:1,2009-02-02T04:00:00Z,29.1015,-89.9782,0.0,8.8,122.0,,'11111222,11111222,99999999' 
WAVCIS,ioos:station:WAVCIS:CSI09:1,2009-02-02T05:00:00Z,29.1015,-89.9782,0.0,10.26,125.0,,'11111222,11111222,99999999' 
WAVCIS,ioos:station:WAVCIS:CSI09:1,2009-02-02T06:00:00Z,29.1015,-89.9782,0.0,10.64,128.0,,'11111222,11111222,99999999' 
WAVCIS,ioos:station:WAVCIS:CSI09:1,2009-02-02T07:00:00Z,29.1015,-89.9782,0.0,9.51,127.0,,'11111222,11111222,99999999' 
WAVCIS,ioos:station:WAVCIS:CSI09:1,2009-02-02T08:00:00Z,29.1015,-89.9782,0.0,8.69,131.0,,'11111222,11111222,99999999' 
WAVCIS,ioos:station:WAVCIS:CSI09:1,2009-02-02T09:00:00Z,29.1015,-89.9782,0.0,7.34,129.0,,'11111222,11111222,99999999' 
WAVCIS,ioos:station:WAVCIS:CSI09:1,2009-02-02T10:00:00Z,29.1015,-89.9782,0.0,5.594,125.0,,'11111222,11111222,99999999' 
WAVCIS,ioos:station:WAVCIS:CSI09:1,2009-02-02T11:00:00Z,29.1015,-89.9782,0.0,2.857,131.0,,'11111222,11111222,99999999' 
WAVCIS,ioos:station:WAVCIS:CSI09:1,2009-02-02T12:00:00Z,29.1015,-89.9782,0.0,2.576,188.0,,'11111222,11111222,99999999' 
WAVCIS,ioos:station:WAVCIS:CSI09:1,2009-02-02T13:00:00Z,29.1015,-89.9782,0.0,3.792,135.0,,'11111222,11111222,99999999' 
WAVCIS,ioos:station:WAVCIS:CSI09:1,2009-02-02T14:00:00Z,29.1015,-89.9782,0.0,2.937,139.0,,'11111222,11111222,99999999' 
WAVCIS,ioos:station:WAVCIS:CSI09:1,2009-02-02T15:00:00Z,29.1015,-89.9782,0.0,3.198,261.0,,'11111222,11111222,99999999' 
WAVCIS,ioos:station:WAVCIS:CSI09:1,2009-02-02T16:00:00Z,29.1015,-89.9782,0.0,3.969,288.0,,'11111222,11111222,99999999' 
WAVCIS,ioos:station:WAVCIS:CSI09:1,2009-02-02T17:00:00Z,29.1015,-89.9782,0.0,6.347,352.0,,'11111222,11111222,99999999' 
WAVCIS,ioos:station:WAVCIS:CSI09:1,2009-02-02T18:00:00Z,29.1015,-89.9782,0.0,8.85,359.0,,'11111222,11111222,99999999' 
WAVCIS,ioos:station:WAVCIS:CSI09:1,2009-02-02T19:00:00Z,29.1015,-89.9782,0.0,9.92,350.0,,'11111222,11111222,99999999' 
WAVCIS,ioos:station:WAVCIS:CSI09:1,2009-02-02T20:00:00Z,29.1015,-89.9782,0.0,12.31,348.0,,'11111222,11111222,99999999' 
WAVCIS,ioos:station:WAVCIS:CSI09:1,2009-02-02T21:00:00Z,29.1015,-89.9782,0.0,11.92,349.0,,'11111222,11111222,99999999' 
WAVCIS,ioos:station:WAVCIS:CSI09:1,2009-02-02T22:00:00Z,29.1015,-89.9782,0.0,12.66,345.0,,'11111222,11111222,99999999' 
WAVCIS,ioos:station:WAVCIS:CSI09:1,2009-02-02T23:00:00Z,29.1015,-89.9782,0.0,12.8,353.0,,'11111222,11111222,99999999' 
WAVCIS,ioos:station:WAVCIS:CSI09:1,2009-02-03T00:00:00Z,29.1015,-89.9782,0.0,11.68,351.0,,'11111222,11111222,99999999' 
WAVCIS,ioos:station:WAVCIS:CSI09:1,2009-02-03T01:00:00Z,29.1015,-89.9782,0.0,12.1,357.0,,'11111222,11111222,99999999' 
WAVCIS,ioos:station:WAVCIS:CSI09:1,2009-02-03T02:00:00Z,29.1015,-89.9782,0.0,14.25,354.0,,'11111222,11111222,99999999' 
WAVCIS,ioos:station:WAVCIS:CSI09:1,2009-02-03T03:00:00Z,29.1015,-89.9782,0.0,13.46,357.0,,'11111222,11111222,99999999' 
WAVCIS,ioos:station:WAVCIS:CSI09:1,2009-02-03T04:00:00Z,29.1015,-89.9782,0.0,12.6,352.0,,'11111222,11111222,99999999' 
WAVCIS,ioos:station:WAVCIS:CSI09:1,2009-02-03T05:00:00Z,29.1015,-89.9782,0.0,12.61,353.0,,'11111222,11111222,99999999' 
WAVCIS,ioos:station:WAVCIS:CSI09:1,2009-02-03T06:00:00Z,29.1015,-89.9782,0.0,11.47,357.0,,'11111222,11111222,99999999' 
WAVCIS,ioos:station:WAVCIS:CSI09:1,2009-02-03T07:00:00Z,29.1015,-89.9782,0.0,11.99,2.0,,'11111222,11111222,99999999' 
WAVCIS,ioos:station:WAVCIS:CSI09:1,2009-02-03T08:00:00Z,29.1015,-89.9782,0.0,10.74,10.0,,'11111222,11111222,99999999' 
WAVCIS,ioos:station:WAVCIS:CSI09:1,2009-02-03T09:00:00Z,29.1015,-89.9782,0.0,8.14,21.0,,'11111222,11111222,99999999' 
WAVCIS,ioos:station:WAVCIS:CSI09:1,2009-02-03T10:00:00Z,29.1015,-89.9782,0.0,8.69,18.0,,'11111222,11111222,99999999' 
WAVCIS,ioos:station:WAVCIS:CSI09:1,2009-02-03T11:00:00Z,29.1015,-89.9782,0.0,8.06,12.0,,'11111222,11111222,99999999' 
WAVCIS,ioos:station:WAVCIS:CSI09:1,2009-02-03T12:00:00Z,29.1015,-89.9782,0.0,7.81,11.0,,'11111222,11111222,99999999' 
WAVCIS,ioos:station:WAVCIS:CSI09:1,2009-02-03T13:00:00Z,29.1015,-89.9782,0.0,6.499,27.0,,'11111222,11111222,99999999' 
WAVCIS,ioos:station:WAVCIS:CSI09:1,2009-02-03T14:00:00Z,29.1015,-89.9782,0.0,5.807,33.0,,'11111222,11111222,99999999' 
WAVCIS,ioos:station:WAVCIS:CSI09:1,2009-02-03T15:00:00Z,29.1015,-89.9782,0.0,4.668,42.0,,'11111222,11111222,99999999' 
WAVCIS,ioos:station:WAVCIS:CSI09:1,2009-02-03T16:00:00Z,29.1015,-89.9782,0.0,3.68,28.0,,'11111222,11111222,99999999' 
WAVCIS,ioos:station:WAVCIS:CSI09:1,2009-02-03T17:00:00Z,29.1015,-89.9782,0.0,1.998,28.0,,'11111222,11111222,99999999' 
WAVCIS,ioos:station:WAVCIS:CSI09:1,2009-02-03T18:00:00Z,29.1015,-89.9782,0.0,1.244,326.0,,'11111222,11111222,99999999' 
WAVCIS,ioos:station:WAVCIS:CSI09:1,2009-02-03T19:00:00Z,29.1015,-89.9782,0.0,2.199,263.0,,'11111222,11111222,99999999' 
WAVCIS,ioos:station:WAVCIS:CSI09:1,2009-02-03T20:00:00Z,29.1015,-89.9782,0.0,2.392,242.0,,'11111222,11111222,99999999' 
WAVCIS,ioos:station:WAVCIS:CSI09:1,2009-02-03T21:00:00Z,29.1015,-89.9782,0.0,5.701,238.0,,'11111222,11111222,99999999' 
WAVCIS,ioos:station:WAVCIS:CSI09:1,2009-02-03T22:00:00Z,29.1015,-89.9782,0.0,7.21,251.0,,'11111222,11111222,99999999' 
WAVCIS,ioos:station:WAVCIS:CSI09:1,2009-02-03T23:00:00Z,29.1015,-89.9782,0.0,9.66,251.0,,'11111222,11111222,99999999' 
WAVCIS,ioos:station:WAVCIS:CSI09:1,2009-02-04T00:00:00Z,29.1015,-89.9782,0.0,10.94,266.0,,'11111222,11111222,99999999' 
WAVCIS,ioos:station:WAVCIS:CSI09:1,2009-02-04T01:00:00Z,29.1015,-89.9782,0.0,11.59,274.0,,'11111222,11111222,99999999' 
WAVCIS,ioos:station:WAVCIS:CSI09:1,2009-02-04T02:00:00Z,29.1015,-89.9782,0.0,10.26,273.0,,'11111222,11111222,99999999' 
WAVCIS,ioos:station:WAVCIS:CSI09:1,2009-02-04T03:00:00Z,29.1015,-89.9782,0.0,9.97,269.0,,'11111222,11111222,99999999' 
WAVCIS,ioos:station:WAVCIS:CSI09:1,2009-02-04T04:00:00Z,29.1015,-89.9782,0.0,9.12,274.0,,'11111222,11111222,99999999' 
WAVCIS,ioos:station:WAVCIS:CSI09:1,2009-02-04T05:00:00Z,29.1015,-89.9782,0.0,8.86,277.0,,'11111222,11111222,99999999' 
WAVCIS,ioos:station:WAVCIS:CSI09:1,2009-02-04T06:00:00Z,29.1015,-89.9782,0.0,9.31,289.0,,'11111222,11111222,99999999' 
WAVCIS,ioos:station:WAVCIS:CSI09:1,2009-02-04T07:00:00Z,29.1015,-89.9782,0.0,9.11,325.0,,'11111222,11111222,99999999' 
WAVCIS,ioos:station:WAVCIS:CSI09:1,2009-02-04T08:00:00Z,29.1015,-89.9782,0.0,9.67,6.0,,'11111222,11111222,99999999' 
WAVCIS,ioos:station:WAVCIS:CSI09:1,2009-02-04T09:00:00Z,29.1015,-89.9782,0.0,10.67,16.0,,'11111222,11111222,99999999' 
WAVCIS,ioos:station:WAVCIS:CSI09:1,2009-02-04T10:00:00Z,29.1015,-89.9782,0.0,9.46,23.0,,'11111222,11111222,99999999' 
WAVCIS,ioos:station:WAVCIS:CSI09:1,2009-02-04T11:00:00Z,29.1015,-89.9782,0.0,11.24,23.0,,'11111222,11111222,99999999' 
WAVCIS,ioos:station:WAVCIS:CSI09:1,2009-02-04T12:00:00Z,29.1015,-89.9782,0.0,12.01,22.0,,'11111222,11111222,99999999' 
WAVCIS,ioos:station:WAVCIS:CSI09:1,2009-02-04T13:00:00Z,29.1015,-89.9782,0.0,10.54,22.0,,'11111222,11111222,99999999' 
WAVCIS,ioos:station:WAVCIS:CSI09:1,2009-02-04T14:00:00Z,29.1015,-89.9782,0.0,10.69,29.0,,'11111222,11111222,99999999' 
WAVCIS,ioos:station:WAVCIS:CSI09:1,2009-02-04T15:00:00Z,29.1015,-89.9782,0.0,10.24,26.0,,'11111222,11111222,99999999' 
WAVCIS,ioos:station:WAVCIS:CSI09:1,2009-02-04T16:00:00Z,29.1015,-89.9782,0.0,9.28,38.0,,'11111222,11111222,99999999' 
WAVCIS,ioos:station:WAVCIS:CSI09:1,2009-02-04T17:00:00Z,29.1015,-89.9782,0.0,9.01,37.0,,'11111222,11111222,99999999' 
WAVCIS,ioos:station:WAVCIS:CSI09:1,2009-02-04T18:00:00Z,29.1015,-89.9782,0.0,9.21,34.0,,'11111222,11111222,99999999' 
WAVCIS,ioos:station:WAVCIS:CSI09:1,2009-02-04T19:00:00Z,29.1015,-89.9782,0.0,9.81,29.0,,'11111222,11111222,99999999' 
WAVCIS,ioos:station:WAVCIS:CSI09:1,2009-02-04T20:00:00Z,29.1015,-89.9782,0.0,8.13,20.0,,'11111222,11111222,99999999' 
WAVCIS,ioos:station:WAVCIS:CSI09:1,2009-02-04T21:00:00Z,29.1015,-89.9782,0.0,8.07,7.0,,'11111222,11111222,99999999' 
WAVCIS,ioos:station:WAVCIS:CSI09:1,2009-02-04T22:00:00Z,29.1015,-89.9782,0.0,4.996,345.0,,'11111222,11111222,99999999' 
WAVCIS,ioos:station:WAVCIS:CSI09:1,2009-02-04T23:00:00Z,29.1015,-89.9782,0.0,5.355,348.0,,'11111222,11111222,99999999' 
WAVCIS,ioos:station:WAVCIS:CSI09:1,2009-02-05T00:00:00Z,29.1015,-89.9782,0.0,5.026,9.0,,'11111222,11111222,99999999' 
WAVCIS,ioos:station:WAVCIS:CSI09:1,2009-02-05T01:00:00Z,29.1015,-89.9782,0.0,6.267,351.0,,'11111222,11111222,99999999' 
WAVCIS,ioos:station:WAVCIS:CSI09:1,2009-02-05T02:00:00Z,29.1015,-89.9782,0.0,5.487,357.0,,'11111222,11111222,99999999' 
WAVCIS,ioos:station:WAVCIS:CSI09:1,2009-02-05T03:00:00Z,29.1015,-89.9782,0.0,5.934,3.0,,'11111222,11111222,99999999' 
WAVCIS,ioos:station:WAVCIS:CSI09:1,2009-02-05T04:00:00Z,29.1015,-89.9782,0.0,5.466,18.0,,'11111222,11111222,99999999' 
WAVCIS,ioos:station:WAVCIS:CSI09:1,2009-02-05T05:00:00Z,29.1015,-89.9782,0.0,6.356,32.0,,'11111222,11111222,99999999' 
WAVCIS,ioos:station:WAVCIS:CSI09:1,2009-02-05T06:00:00Z,29.1015,-89.9782,0.0,4.967,42.0,,'11111222,11111222,99999999' 
WAVCIS,ioos:station:WAVCIS:CSI09:1,2009-02-05T07:00:00Z,29.1015,-89.9782,0.0,4.786,37.0,,'11111222,11111222,99999999' 
WAVCIS,ioos:station:WAVCIS:CSI09:1,2009-02-05T08:00:00Z,29.1015,-89.9782,0.0,4.927,27.0,,'11111222,11111222,99999999' 
WAVCIS,ioos:station:WAVCIS:CSI09:1,2009-02-05T09:00:00Z,29.1015,-89.9782,0.0,4.21,46.0,,'11111222,11111222,99999999' 
WAVCIS,ioos:station:WAVCIS:CSI09:1,2009-02-05T10:00:00Z,29.1015,-89.9782,0.0,4.817,64.0,,'11111222,11111222,99999999' 
WAVCIS,ioos:station:WAVCIS:CSI09:1,2009-02-05T11:00:00Z,29.1015,-89.9782,0.0,5.27,60.0,,'11111222,11111222,99999999' 
WAVCIS,ioos:station:WAVCIS:CSI09:1,2009-02-05T12:00:00Z,29.1015,-89.9782,0.0,5.325,60.0,,'11111222,11111222,99999999' 
WAVCIS,ioos:station:WAVCIS:CSI09:1,2009-02-05T13:00:00Z,29.1015,-89.9782,0.0,5.569,61.0,,'11111222,11111222,99999999' 
WAVCIS,ioos:station:WAVCIS:CSI09:1,2009-02-05T14:00:00Z,29.1015,-89.9782,0.0,5.765,64.0,,'11111222,11111222,99999999' 
WAVCIS,ioos:station:WAVCIS:CSI09:1,2009-02-05T15:00:00Z,29.1015,-89.9782,0.0,6.414,71.0,,'11111222,11111222,99999999' 
WAVCIS,ioos:station:WAVCIS:CSI09:1,2009-02-05T16:00:00Z,29.1015,-89.9782,0.0,6.792,71.0,,'11111222,11111222,99999999' 
WAVCIS,ioos:station:WAVCIS:CSI09:1,2009-02-05T17:00:00Z,29.1015,-89.9782,0.0,7.28,69.0,,'11111222,11111222,99999999' 
WAVCIS,ioos:station:WAVCIS:CSI09:1,2009-02-05T18:00:00Z,29.1015,-89.9782,0.0,7.05,62.0,,'11111222,11111222,99999999' 
WAVCIS,ioos:station:WAVCIS:CSI09:1,2009-02-05T19:00:00Z,29.1015,-89.9782,0.0,6.43,68.0,,'11111222,11111222,99999999' 
WAVCIS,ioos:station:WAVCIS:CSI09:1,2009-02-05T20:00:00Z,29.1015,-89.9782,0.0,5.274,79.0,,'11111222,11111222,99999999' 
WAVCIS,ioos:station:WAVCIS:CSI09:1,2009-02-05T21:00:00Z,29.1015,-89.9782,0.0,5.208,81.0,,'11111222,11111222,99999999' 
WAVCIS,ioos:station:WAVCIS:CSI09:1,2009-02-05T22:00:00Z,29.1015,-89.9782,0.0,5.195,93.0,,'11111222,11111222,99999999' 
WAVCIS,ioos:station:WAVCIS:CSI09:1,2009-02-05T23:00:00Z,29.1015,-89.9782,0.0,4.829,97.0,,'11111222,11111222,99999999' 
WAVCIS,ioos:station:WAVCIS:CSI09:1,2009-02-06T00:00:00Z,29.1015,-89.9782,0.0,4.832,99.0,,'11111222,11111222,99999999' 
WAVCIS,ioos:station:WAVCIS:CSI09:1,2009-02-06T01:00:00Z,29.1015,-89.9782,0.0,5.277,107.0,,'11111222,11111222,99999999' 
WAVCIS,ioos:station:WAVCIS:CSI09:1,2009-02-06T02:00:00Z,29.1015,-89.9782,0.0,5.037,106.0,,'11111222,11111222,99999999' 
WAVCIS,ioos:station:WAVCIS:CSI09:1,2009-02-06T03:00:00Z,29.1015,-89.9782,0.0,5.875,114.0,,'11111222,11111222,99999999' 
WAVCIS,ioos:station:WAVCIS:CSI09:1,2009-02-06T04:00:00Z,29.1015,-89.9782,0.0,6.147,131.0,,'11111222,11111222,99999999' 
WAVCIS,ioos:station:WAVCIS:CSI09:1,2009-02-06T05:00:00Z,29.1015,-89.9782,0.0,5.591,133.0,,'11111222,11111222,99999999' 
WAVCIS,ioos:station:WAVCIS:CSI09:1,2009-02-06T06:00:00Z,29.1015,-89.9782,0.0,6.038,139.0,,'11111222,11111222,99999999' 
WAVCIS,ioos:station:WAVCIS:CSI09:1,2009-02-06T07:00:00Z,29.1015,-89.9782,0.0,5.317,140.0,,'11111222,11111222,99999999' 
WAVCIS,ioos:station:WAVCIS:CSI09:1,2009-02-06T08:00:00Z,29.1015,-89.9782,0.0,5.58,145.0,,'11111222,11111222,99999999' 
WAVCIS,ioos:station:WAVCIS:CSI09:1,2009-02-06T09:00:00Z,29.1015,-89.9782,0.0,5.562,148.0,,'11111222,11111222,99999999' 
WAVCIS,ioos:station:WAVCIS:CSI09:1,2009-02-06T10:00:00Z,29.1015,-89.9782,0.0,5.871,152.0,,'11111222,11111222,99999999' 
WAVCIS,ioos:station:WAVCIS:CSI09:1,2009-02-06T11:00:00Z,29.1015,-89.9782,0.0,6.236,150.0,,'11111222,11111222,99999999' 
WAVCIS,ioos:station:WAVCIS:CSI09:1,2009-02-06T12:00:00Z,29.1015,-89.9782,0.0,5.838,155.0,,'11111222,11111222,99999999' 
WAVCIS,ioos:station:WAVCIS:CSI09:1,2009-02-06T13:00:00Z,29.1015,-89.9782,0.0,5.863,148.0,,'11111222,11111222,99999999' 
WAVCIS,ioos:station:WAVCIS:CSI09:1,2009-02-06T14:00:00Z,29.1015,-89.9782,0.0,5.999,144.0,,'11111222,11111222,99999999' 
WAVCIS,ioos:station:WAVCIS:CSI09:1,2009-02-06T15:00:00Z,29.1015,-89.9782,0.0,5.843,142.0,,'11111222,11111222,99999999' 
WAVCIS,ioos:station:WAVCIS:CSI09:1,2009-02-06T16:00:00Z,29.1015,-89.9782,0.0,6.004,122.0,,'11111222,11111222,99999999' 
WAVCIS,ioos:station:WAVCIS:CSI09:1,2009-02-06T17:00:00Z,29.1015,-89.9782,0.0,6.783,121.0,,'11111222,11111222,99999999' 
WAVCIS,ioos:station:WAVCIS:CSI09:1,2009-02-06T18:00:00Z,29.1015,-89.9782,0.0,6.41,118.0,,'11111222,11111222,99999999' 
WAVCIS,ioos:station:WAVCIS:CSI09:1,2009-02-06T19:00:00Z,29.1015,-89.9782,0.0,5.981,114.0,,'11111222,11111222,99999999' 
WAVCIS,ioos:station:WAVCIS:CSI09:1,2009-02-06T20:00:00Z,29.1015,-89.9782,0.0,6.006,115.0,,'11111222,11111222,99999999' 
WAVCIS,ioos:station:WAVCIS:CSI09:1,2009-02-06T21:00:00Z,29.1015,-89.9782,0.0,5.702,119.0,,'11111222,11111222,99999999' 
WAVCIS,ioos:station:WAVCIS:CSI09:1,2009-02-06T22:00:00Z,29.1015,-89.9782,0.0,5.719,117.0,,'11111222,11111222,99999999' 
WAVCIS,ioos:station:WAVCIS:CSI09:1,2009-02-06T23:00:00Z,29.1015,-89.9782,0.0,5.712,113.0,,'11111222,11111222,99999999' 
WAVCIS,ioos:station:WAVCIS:CSI09:1,2009-02-07T00:00:00Z,29.1015,-89.9782,0.0,5.262,110.0,,'11111222,11111222,99999999' 
WAVCIS,ioos:station:WAVCIS:CSI09:1,2009-02-07T01:00:00Z,29.1015,-89.9782,0.0,5.58,108.0,,'11111222,11111222,99999999' 
WAVCIS,ioos:station:WAVCIS:CSI09:1,2009-02-07T02:00:00Z,29.1015,-89.9782,0.0,5.386,108.0,,'11111222,11111222,99999999' 
WAVCIS,ioos:station:WAVCIS:CSI09:1,2009-02-07T03:00:00Z,29.1015,-89.9782,0.0,5.623,107.0,,'11111222,11111222,99999999' 
WAVCIS,ioos:station:WAVCIS:CSI09:1,2009-02-07T04:00:00Z,29.1015,-89.9782,0.0,6.524,119.0,,'11111222,11111222,99999999' 
WAVCIS,ioos:station:WAVCIS:CSI09:1,2009-02-07T05:00:00Z,29.1015,-89.9782,0.0,6.595,126.0,,'11111222,11111222,99999999' 
WAVCIS,ioos:station:WAVCIS:CSI09:1,2009-02-07T06:00:00Z,29.1015,-89.9782,0.0,6.818,129.0,,'11111222,11111222,99999999' 
WAVCIS,ioos:station:WAVCIS:CSI09:1,2009-02-07T07:00:00Z,29.1015,-89.9782,0.0,5.691,143.0,,'11111222,11111222,99999999' 
WAVCIS,ioos:station:WAVCIS:CSI09:1,2009-02-07T08:00:00Z,29.1015,-89.9782,0.0,6.268,163.0,,'11111222,11111222,99999999' 
WAVCIS,ioos:station:WAVCIS:CSI09:1,2009-02-07T09:00:00Z,29.1015,-89.9782,0.0,5.553,159.0,,'11111222,11111222,99999999' 
WAVCIS,ioos:station:WAVCIS:CSI09:1,2009-02-07T10:00:00Z,29.1015,-89.9782,0.0,4.952,152.0,,'11111222,11111222,99999999' 
WAVCIS,ioos:station:WAVCIS:CSI09:1,2009-02-07T11:00:00Z,29.1015,-89.9782,0.0,4.949,145.0,,'11111222,11111222,99999999' 
WAVCIS,ioos:station:WAVCIS:CSI09:1,2009-02-07T12:00:00Z,29.1015,-89.9782,0.0,5.128,151.0,,'11111222,11111222,99999999' 
WAVCIS,ioos:station:WAVCIS:CSI09:1,2009-02-07T13:00:00Z,29.1015,-89.9782,0.0,4.799,169.0,,'11111222,11111222,99999999' 
WAVCIS,ioos:station:WAVCIS:CSI09:1,2009-02-07T14:00:00Z,29.1015,-89.9782,0.0,4.623,154.0,,'11111222,11111222,99999999' 
WAVCIS,ioos:station:WAVCIS:CSI09:1,2009-02-07T15:00:00Z,29.1015,-89.9782,0.0,4.756,131.0,,'11111222,11111222,99999999' 
WAVCIS,ioos:station:WAVCIS:CSI09:1,2009-02-07T16:00:00Z,29.1015,-89.9782,0.0,2.777,95.0,,'11111222,11111222,99999999' 
WAVCIS,ioos:station:WAVCIS:CSI09:1,2009-02-07T17:00:00Z,29.1015,-89.9782,0.0,2.466,104.0,,'11111222,11111222,99999999' 
WAVCIS,ioos:station:WAVCIS:CSI09:1,2009-02-07T18:00:00Z,29.1015,-89.9782,0.0,3.676,135.0,,'11111222,11111222,99999999' 
WAVCIS,ioos:station:WAVCIS:CSI09:1,2009-02-07T19:00:00Z,29.1015,-89.9782,0.0,3.56,94.0,,'11111222,11111222,99999999' 
WAVCIS,ioos:station:WAVCIS:CSI09:1,2009-02-07T20:00:00Z,29.1015,-89.9782,0.0,5.097,101.0,,'11111222,11111222,99999999' 
WAVCIS,ioos:station:WAVCIS:CSI09:1,2009-02-07T21:00:00Z,29.1015,-89.9782,0.0,8.16,114.0,,'11111222,11111222,99999999' 
WAVCIS,ioos:station:WAVCIS:CSI09:1,2009-02-07T22:00:00Z,29.1015,-89.9782,0.0,4.924,125.0,,'11111222,11111222,99999999' 
WAVCIS,ioos:station:WAVCIS:CSI09:1,2009-02-07T23:00:00Z,29.1015,-89.9782,0.0,5.141,115.0,,'11111222,11111222,99999999' 
WAVCIS,ioos:station:WAVCIS:CSI09:1,2009-02-08T00:00:00Z,29.1015,-89.9782,0.0,5.33,110.0,,'11111222,11111222,99999999' 
WAVCIS,ioos:station:WAVCIS:CSI09:1,2009-02-08T01:00:00Z,29.1015,-89.9782,0.0,6.124,117.0,,'11111222,11111222,99999999' 
WAVCIS,ioos:station:WAVCIS:CSI09:1,2009-02-08T02:00:00Z,29.1015,-89.9782,0.0,8.1,116.0,,'11111222,11111222,99999999' 
WAVCIS,ioos:station:WAVCIS:CSI09:1,2009-02-08T03:00:00Z,29.1015,-89.9782,0.0,6.844,116.0,,'11111222,11111222,99999999' 
WAVCIS,ioos:station:WAVCIS:CSI09:1,2009-02-08T04:00:00Z,29.1015,-89.9782,0.0,9.86,134.0,,'11111222,11111222,99999999' 
WAVCIS,ioos:station:WAVCIS:CSI09:1,2009-02-08T05:00:00Z,29.1015,-89.9782,0.0,8.97,129.0,,'11111222,11111222,99999999' 
WAVCIS,ioos:station:WAVCIS:CSI09:1,2009-02-08T06:00:00Z,29.1015,-89.9782,0.0,8.48,128.0,,'11111222,11111222,99999999' 
WAVCIS,ioos:station:WAVCIS:CSI09:1,2009-02-08T07:00:00Z,29.1015,-89.9782,0.0,7.68,120.0,,'11111222,11111222,99999999' 
WAVCIS,ioos:station:WAVCIS:CSI09:1,2009-02-08T08:00:00Z,29.1015,-89.9782,0.0,7.94,118.0,,'11111222,11111222,99999999' 
WAVCIS,ioos:station:WAVCIS:CSI09:1,2009-02-08T09:00:00Z,29.1015,-89.9782,0.0,7.1,108.0,,'11111222,11111222,99999999' 
WAVCIS,ioos:station:WAVCIS:CSI09:1,2009-02-08T10:00:00Z,29.1015,-89.9782,0.0,6.987,107.0,,'11111222,11111222,99999999' 
WAVCIS,ioos:station:WAVCIS:CSI09:1,2009-02-08T11:00:00Z,29.1015,-89.9782,0.0,6.945,90.0,,'11111222,11111222,99999999' 
WAVCIS,ioos:station:WAVCIS:CSI09:1,2009-02-08T12:00:00Z,29.1015,-89.9782,0.0,6.657,93.0,,'11111222,11111222,99999999' 
WAVCIS,ioos:station:WAVCIS:CSI09:1,2009-02-08T13:00:00Z,29.1015,-89.9782,0.0,6.061,87.0,,'11111222,11111222,99999999' 
WAVCIS,ioos:station:WAVCIS:CSI09:1,2009-02-08T14:00:00Z,29.1015,-89.9782,0.0,6.278,91.0,,'11111222,11111222,99999999' 
WAVCIS,ioos:station:WAVCIS:CSI09:1,2009-02-08T15:00:00Z,29.1015,-89.9782,0.0,6.612,92.0,,'11111222,11111222,99999999' 
WAVCIS,ioos:station:WAVCIS:CSI09:1,2009-02-08T16:00:00Z,29.1015,-89.9782,0.0,8.71,87.0,,'11111222,11111222,99999999' 
WAVCIS,ioos:station:WAVCIS:CSI09:1,2009-02-08T17:00:00Z,29.1015,-89.9782,0.0,5.59,91.0,,'11111222,11111222,99999999' 
WAVCIS,ioos:station:WAVCIS:CSI09:1,2009-02-08T18:00:00Z,29.1015,-89.9782,0.0,6.876,104.0,,'11111222,11111222,99999999' 
WAVCIS,ioos:station:WAVCIS:CSI09:1,2009-02-08T19:00:00Z,29.1015,-89.9782,0.0,6.26,94.0,,'11111222,11111222,99999999' 
WAVCIS,ioos:station:WAVCIS:CSI09:1,2009-02-08T20:00:00Z,29.1015,-89.9782,0.0,6.544,114.0,,'11111222,11111222,99999999' 
WAVCIS,ioos:station:WAVCIS:CSI09:1,2009-02-08T21:00:00Z,29.1015,-89.9782,0.0,5.292,117.0,,'11111222,11111222,99999999' 
WAVCIS,ioos:station:WAVCIS:CSI09:1,2009-02-08T22:00:00Z,29.1015,-89.9782,0.0,4.944,114.0,,'11111222,11111222,99999999' 
WAVCIS,ioos:station:WAVCIS:CSI09:1,2009-02-08T23:00:00Z,29.1015,-89.9782,0.0,4.716,85.0,,'11111222,11111222,99999999' 
WAVCIS,ioos:station:WAVCIS:CSI09:1,2009-02-09T00:00:00Z,29.1015,-89.9782,0.0,5.464,87.0,,'11111222,11111222,99999999' 
WAVCIS,ioos:station:WAVCIS:CSI09:1,2009-02-09T01:00:00Z,29.1015,-89.9782,0.0,4.612,93.0,,'11111222,11111222,99999999' 
WAVCIS,ioos:station:WAVCIS:CSI09:1,2009-02-09T02:00:00Z,29.1015,-89.9782,0.0,5.388,100.0,,'11111222,11111222,99999999' 
WAVCIS,ioos:station:WAVCIS:CSI09:1,2009-02-09T03:00:00Z,29.1015,-89.9782,0.0,7.28,115.0,,'11111222,11111222,99999999' 
WAVCIS,ioos:station:WAVCIS:CSI09:1,2009-02-09T04:00:00Z,29.1015,-89.9782,0.0,8.16,121.0,,'11111222,11111222,99999999' 
WAVCIS,ioos:station:WAVCIS:CSI09:1,2009-02-09T05:00:00Z,29.1015,-89.9782,0.0,7.83,117.0,,'11111222,11111222,99999999' 
WAVCIS,ioos:station:WAVCIS:CSI09:1,2009-02-09T06:00:00Z,29.1015,-89.9782,0.0,9.65,115.0,,'11111222,11111222,99999999' 
WAVCIS,ioos:station:WAVCIS:CSI09:1,2009-02-09T07:00:00Z,29.1015,-89.9782,0.0,10.5,117.0,,'11111222,11111222,99999999' 